This is the latest recevied weather packets stored in our database for station/object DB0LC-2. If no packets are shown the sender has not sent any weather packets the latest 10 day(s).
| Time | Temp. | Humidity | Pressure | Rain* | Wind** | Luminosity | Snow |
|---|---|---|---|---|---|---|---|
| 1776894705 | 19.44° C | 28% | 918.3 hPa | 0 mm | - | - | - |
| 1776894101 | 18.89° C | 28% | 918.3 hPa | 0 mm | - | - | - |
| 1776893478 | 19.44° C | 26% | 918.3 hPa | 0 mm | - | - | - |
| 1776892866 | 20° C | 28% | 918.2 hPa | 0 mm | - | - | - |
| 1776891660 | 19.44° C | 28% | 918.2 hPa | 0 mm | - | - | - |
| 1776891049 | 19.44° C | 28% | 918 hPa | 0 mm | - | - | - |
| 1776890427 | 19.44° C | 28% | 918 hPa | 0 mm | - | - | - |
| 1776889204 | 20° C | 28% | 917.8 hPa | 0 mm | - | - | - |
| 1776888598 | 20° C | 28% | 917.6 hPa | 0 mm | - | - | - |
| 1776887989 | 20° C | 28% | 917.5 hPa | 0 mm | - | - | - |
| 1776887367 | 19.44° C | 28% | 917.5 hPa | 0 mm | - | - | - |
| 1776886166 | 19.44° C | 29% | 917.5 hPa | 0 mm | - | - | - |
| 1776885542 | 18.89° C | 28% | 917.3 hPa | 0 mm | - | - | - |
| 1776885541 | 18.89° C | 28% | 917.4 hPa | 0 mm | - | - | - |
| 1776884940 | 20° C | 28% | 917.2 hPa | 0 mm | - | - | - |
| 1776884316 | 20° C | 28% | 917.2 hPa | 0 mm | - | - | - |
| 1776883704 | 20° C | 29% | 917.1 hPa | 0 mm | - | - | - |
| 1776883103 | 19.44° C | 29% | 917 hPa | 0 mm | - | - | - |
| 1776882491 | 19.44° C | 29% | 917 hPa | 0 mm | - | - | - |
| 1776881883 | 18.89° C | 29% | 917 hPa | 0 mm | - | - | - |
| 1776881882 | 18.89° C | 29% | 916.8 hPa | 0 mm | - | - | - |
| 1776881258 | 20° C | 27% | 916.7 hPa | 0 mm | - | - | - |
| 1776880643 | 20° C | 29% | 916.6 hPa | 0 mm | - | - | - |
| 1776880044 | 20° C | 29% | 916.5 hPa | 0 mm | - | - | - |
| 1776879418 | 19.44° C | 29% | 916.4 hPa | 0 mm | - | - | - |
* Rain latest hour (hover to see other rain measurements)
** Current wind speed in m/s (hover to see current wind gust speed)